Content
SEND FEEDBACK

Daily
Averages
Monthly
Summary
United States of America

KINSTON, NORTH CAROLINA


Home > North America > United States > North Carolina
Elevation: 81 feet     Latitude: 35 19N     Longitude: 077 37W

WEATHER
 
SELECT A DAY
Number of Records: 233,035;   Date Range: 1/1/95 - 10/19/14
 
SHARE

PRINT THIS DATA

[ ← Previous Day ]
WEATHER ALMANAC - JANUARY 31, 2013
[ Next Day → ]
[ °C ]   °F
Weather ElementAverageHighLow
Temperature50.6 °F70.3 °F (1:15 am)33.8 °F (11:55 pm)
Dewpoint37.6 °F64.2 °F (12:55 am)17.6 °F (2:56 pm)
Humidity64.4 %92 % (2:35 am)24 % (2:56 pm)
Barometer29.78 in30.06 in (11:55 pm)29.47 in (1:15 am)
Wind Speed11.7 mph26.5 mph (12:35 am)
Wind Gust41.4 mph (1:55 am)
Weather ElementAverage
Visibility9.2 mi
Wind DirectionSSW (192.2 °)

Weather ElementTotal
Precipitation0.43 in
Heating Degree Days13 (Base 65)
Growing Degree Days2.1 (Base 50)
Averaged from 41 records on January 31, 2013
WEATHER CONDITIONS BREAKOUT
WIND DIRECTION BREAKOUT
WEATHER BY HOUR - JANUARY 31, 2013
[ °C ]   °F
Local TimeTemperatureDewpointHumidityBarometerVisibilityWind DirectionWind SpeedGust SpeedPrecipitationEventsConditions
12:35 AM69.3 °F63.9 °F83 %29.50 in7.0 miSouth (180°)26.5 mph39.1 mphRainLight Rain
12:55 AM69.1 °F64.2 °F84 %29.48 in7.0 miSouth (180°)26.5 mph35.7 mphLight Drizzle
1:15 AM70.3 °F64.0 °F80 %29.47 in10.0 miSouth (180°)25.3 mph33.4 mphMostly Cloudy
1:35 AM68.7 °F63.9 °F84 %29.53 in2.5 miSW (230°)26.5 mph36.8 mph0.14 inRainHeavy Rain
1:55 AM59.7 °F55.8 °F87 %29.53 in5.0 miWSW (250°)20.7 mph41.4 mph0.21 inRainLight Rain
2:15 AM58.3 °F55.4 °F90 %29.56 in7.0 miWSW (250°)10.4 mph24.2 mphRainLight Rain
2:35 AM57.6 °F55.4 °F92 %29.56 in5.0 miSW (230°)13.8 mph20.7 mph0.02 inRainRain
2:55 AM56.3 °F53.6 °F91 %29.56 in5.0 miSW (230°)19.6 mph27.6 mph0.04 inRainLight Rain
3:15 AM54.9 °F52.0 °F90 %29.57 in10.0 miSW (230°)13.8 mph26.5 mphRainLight Rain
3:35 AM54.3 °F52.0 °F92 %29.57 in7.0 miSW (220°)16.1 mph26.5 mph0.01 inRainRain
3:55 AM53.2 °F49.6 °F88 %29.58 in10.0 miSW (220°)13.8 mph25.3 mph0.01 inMostly Cloudy
4:15 AM53.6 °F48.6 °F83 %29.58 in10.0 miSW (230°)17.3 mph26.5 mphMostly Cloudy
4:35 AM53.8 °F47.5 °F79 %29.59 in10.0 miWSW (240°)16.1 mph28.8 mphScattered Clouds
4:55 AM53.6 °F46.4 °F77 %29.61 in10.0 miSW (230°)15.0 mph26.5 mphClear
5:15 AM53.2 °F45.9 °F76 %29.61 in10.0 miSW (230°)15.0 mph26.5 mphClear
5:35 AM52.9 °F46.0 °F78 %29.63 in10.0 miWSW (240°)16.1 mph23.0 mphClear
5:55 AM53.6 °F45.1 °F73 %29.64 in10.0 miWSW (240°)19.6 mph28.8 mphScattered Clouds
6:56 AM51.8 °F41.0 °F67 %29.69 in10.0 miSW (230°)13.8 mph18.4 mphMostly Cloudy
7:56 AM51.8 °F39.2 °F62 %29.74 in10.0 miWSW (240°)11.5 mph26.5 mphMostly Cloudy
8:56 AM50.0 °F39.2 °F66 %29.78 in10.0 miWSW (250°)11.5 mph19.6 mphMostly Cloudy
9:56 AM50.0 °F35.6 °F58 %29.82 in10.0 miWSW (250°)18.4 mph27.6 mphScattered Clouds
10:56 AM51.8 °F23.0 °F33 %29.85 in10.0 miWest (280°)17.3 mph23.0 mphClear
11:56 AM51.8 °F23.0 °F33 %29.86 in10.0 miWest (280°)15.0 mph23.0 mphClear
12:56 PM53.6 °F19.4 °F26 %29.85 in10.0 miWest (280°)16.1 mph26.5 mphClear
1:56 PM55.4 °F23.0 °F29 %29.84 in10.0 miWest (260°)13.8 mph20.7 mphClear
2:56 PM53.6 °F17.6 °F24 %29.86 in10.0 miWest (260°)17.3 mph26.5 mphClear
4:56 PM51.8 °F19.4 °F28 %29.91 in10.0 miWest (280°)8.1 mph21.9 mphClear
5:56 PM48.2 °F21.2 °F34 %29.95 in10.0 miENE (70°)4.6 mphClear
6:56 PM44.6 °F23.0 °F43 %29.99 in10.0 miCalmClear
7:56 PM41.0 °F24.8 °F53 %30.01 in10.0 miSW (230°)3.5 mphClear
8:15 PM42.1 °F25.3 °F52 %30.02 in10.0 miWSW (240°)3.5 mphClear
8:35 PM42.1 °F24.6 °F50 %30.03 in10.0 miWSW (240°)4.6 mphClear
8:55 PM41.2 °F24.4 °F51 %30.03 in10.0 miWSW (240°)3.5 mphClear
9:15 PM40.6 °F25.3 °F54 %30.03 in10.0 miCalmClear
9:35 PM40.1 °F24.8 °F54 %30.04 in10.0 miWSW (240°)3.5 mphClear
9:55 PM39.7 °F26.1 °F58 %30.04 in10.0 miCalmClear
10:15 PM38.7 °F25.3 °F59 %30.04 in10.0 miCalmClear
10:35 PM38.3 °F25.7 °F61 %30.05 in10.0 miCalmClear
11:15 PM35.6 °F26.8 °F70 %30.05 in10.0 miCalmClear
11:35 PM35.6 °F26.8 °F70 %30.05 in10.0 miCalmClear
11:55 PM33.8 °F27.5 °F78 %30.06 in10.0 miSSW (200°)3.5 mphClear
Hourly data recorded from KISO, located miles away from Kinston, North Carolina







STORIES FROM OUR PARTNERS